Location: Hamayl? Da??
(36.7028°N, 30.1716°E)
Time: 00:14:48
(UTC+00:00)

Cosmos 2297 Rocket - Pass Details

Date: 04 August 2024
Orbit: 837 x 844 km, 71.0° (Epoch: 18 September)

Event Time Altitude Azimuth Distance (km) Brightness Sun altitude
Rises 21:59:11 0° 325° (NW) 3,406 6.1 -36.4°
Reaches altitude 10° 22:01:57 10° 314° (NW) 2,468 5.1 -36.4°
Enters shadow 22:03:44 18° 301° (WNW) 1,951 4.3 -36.4°
